STARLINK-1828, 46725

Orbit data source: Space-Track

STARLINK-1828, 46725 is a payload satellite owned by SpaceX/Seattle (US) in LEO that was launched on Sun, 18 Oct 2020 UTC via an FALCON 9 launch vehicle from the Air Force Eastern Test Range (AFETR). Payload-class satellites include a variety of spacecraft equipped with specific instruments for various scientific and technological missions. These include communications satellites like Starlink; space stations such as the ISS; scientific satellites like the Hubble; Earth observation satellites from companies like Planet Labs, Umbra, and HawkEye 360; GPS; miniature CubeSats for education and research; and military/defense satellites.

Loading next visibility...
Identifier
46725, 2020-073BH
Orbit
LEO
Country
Flag of USUS
Related business
Manufacturer
SpaceX/Seattle
Mission
Operational Commercial Communications
Bus & Motor
STARLINK, Unknown motor
Mass
260 kg wet, ~248 kg dry
Launch date (UTC)
2020-10-18 (5 years ago)
Launch vehicle
FALCON 9
Launch site
Air Force Eastern Test Range (AFETR)
Object type
Payload
Rocket body
Debris
Shape & HBR
Box + 1 Pan, 10.1 m
Radar Cross Section
13.562 m², Large (>1 m²)

Expand to show TLE details & history
Last TLE update: 15 hours ago

TLE from 15 hours ago
0 STARLINK-1828
1 46725U 20073BH  25347.00009259  .01150746  00000-0  66842-1 0  9993
2 46725  53.0544 285.7713 0000854  87.3652 311.0380 15.08599046  5804
Epoch: 2025-12-13T00:00Z
TLE epoch observation values (Epoch: 2025-12-13T00:00:07.999Z)
Latitude
29.85237°
Longitude
-130.77516°
Altitude
541.754 km
Speed
7.596 km/s
True Right ascension
20h 44m 46s
True Declination
29° 41' 58"
Sunlit
Object was in daylight at epoch
Visualization orbit readout
Latitude
Unknown
Longitude
Unknown
Altitude
Unknown
Speed
Unknown
Apparent Right ascension
Unknown
Apparent Declination
Unknown
Sunlit
N/A
Visualization observer readout
Local Sidereal Time
13:39:05
Azimuth
Unknown
Elevation
Unknown
Doppler factor
Unknown
Orbital elements
Apogee altitude
541.342 km
Perigee altitude
540.16 km
Semi-major axis
6,918.888 km
Eccentricity
0.00009
Inclination
53.0544°
RAAN
285.7713°
Arg. of periapsis
87.3652°
True anomaly
311.03062°
Mean anomaly
311.038°
Eccentric anomaly
311.03431°
Mean motion
3.77128 °/min
Orbital period
95.46 mins
BSTAR
0.066842
Loading maneuver chart data...
Computing Atmospheric mass density...

Documentation

Showing up to 5 results
|